Temp
-9 -9 -10 -10 -9 -9 -9 -9 -9 -10 -10 -9 -9 -9 -9 -9 -8 -8 -8 -8 -8 -8 -7 -8 -8 -8 -8 -8 -9 -9 -9 -9 -9 -10 -10 -10 -11 -11 -12 -12 -11 -11 -11
-10 -10 -10 -10 -10 -10 -10 -10 -9 -10 -10 -9 -9 -9 -9 -9 -9 -8 -8 -8 -8 -8 -8 -8 -8 -8 -8 -8 -9 -9 -9 -9 -10 -10 -10 -10 -11 -11 -12 -12 -12 -11 -11
-10 -10 -10 -10 -10 -10 -10 -10 -10 -10 -10 -10 -10 -9 -9 -9 -9 -9 -8 -8 -8 -8 -8 -8 -8 -8 -8 -8 -9 -9 -9 -10 -10 -10 -10 -11 -11 -11 -12 -11 -12 -12 -12
-10 -10 -10 -10 -10 -10 -10 -10 -10 -10 -10 -10 -10 -10 -10 -9 -9 -9 -9 -9 -9 -8 -8 -8 -8 -8 -8 -9 -9 -9 -9 -10 -10 -10 -11 -11 -11 -11 -11 -12 -12 -12 -12
-10 -10 -10 -10 -10 -10 -10 -10 -10 -10 -10 -10 -10 -10 -10 -10 -10 -9 -9 -9 -9 -9 -9 -8 -8 -8 -8 -8 -9 -9 -9 -10 -9 -10 -10 -11 -11 -11 -11 -11 -12 -12 -12
-10 -10 -10 -10 -11 -10 -10 -10 -10 -10 -10 -10 -10 -10 -10 -10 -10 -10 -9 -9 -9 -9 -9 -9 -8 -8 -8 -8 -9 -9 -10 -10 -9 -10 -11 -11 -11 -11 -10 -11 -11 -12 -12
-10 -10 -11 -11 -11 -11 -10 -10 -10 -10 -11 -10 -10 -10 -10 -11 -10 -10 -10 -10 -9 -9 -9 -9 -9 -8 -8 -8 -9 -9 -10 -10 -9 -10 -10 -11 -10 -10 -10 -11 -11 -11 -12
-11 -11 -11 -11 -11 -11 -11 -11 -10 -10 -11 -11 -11 -11 -11 -11 -10 -10 -10 -10 -10 -10 -9 -9 -9 -9 -8 -8 -8 -8 -9 -10 -9 -10 -10 -10 -11 -11 -11 -11 -11 -12 -12
-11 -11 -11 -11 -12 -11 -11 -11 -11 -11 -11 -11 -11 -11 -11 -11 -11 -10 -10 -10 -10 -10 -10 -9 -9 -9 -9 -9 -8 -8 -9 -9 -9 -9 -10 -10 -11 -11 -11 -11 -11 -11 -12
-11 -11 -11 -11 -12 -12 -12 -12 -12 -11 -11 -11 -11 -11 -11 -11 -11 -11 -10 -10 -10 -10 -10 -10 -9 -9 -9 -9 -8 -8 -9 -9 -9 -10 -10 -11 -11 -11 -11 -12 -11 -12 -12
-12 -11 -11 -11 -11 -12 -12 -12 -12 -12 -12 -11 -11 -11 -11 -11 -11 -11 -11 -10 -10 -10 -10 -10 -10 -9 -9 -9 -9 -9 -9 -9 -9 -10 -10 -11 -11 -11 -11 -11 -11 -12 -12
-12 -12 -11 -11 -12 -12 -12 -12 -12 -12 -12 -12 -12 -12 -11 -11 -11 -11 -11 -11 -10 -11 -10 -10 -10 -10 -9 -9 -9 -9 -9 -10 -10 -10 -10 -10 -10 -11 -11 -12 -11 -11 -11
-12 -12 -12 -12 -11 -12 -12 -12 -12 -12 -12 -12 -12 -12 -12 -11 -11 -11 -11 -11 -11 -11 -11 -11 -10 -10 -10 -10 -9 -9 -9 -10 -10 -10 -10 -10 -11 -11 -11 -11 -11 -11 -10
-13 -13 -13 -12 -12 -12 -12 -13 -12 -12 -13 -12 -12 -12 -12 -12 -12 -12 -12 -11 -11 -11 -11 -11 -11 -11 -10 -10 -10 -10 -10 -10 -10 -10 -10 -11 -11 -11 -11 -11 -11 -11 -11
-12 -12 -12 -12 -12 -12 -12 -13 -13 -12 -12 -12 -13 -12 -13 -12 -12 -12 -12 -12 -11 -11 -11 -11 -11 -11 -11 -10 -10 -10 -10 -11 -10 -10 -10 -10 -10 -11 -11 -11 -11 -12 -12
-12 -12 -12 -12 -12 -12 -12 -12 -13 -13 -13 -12 -13 -13 -13 -13 -12 -12 -12 -12 -12 -11 -11 -11 -11 -11 -11 -11 -11 -11 -11 -11 -11 -11 -10 -10 -10 -10 -11 -11 -11 -11 -12
-12 -12 -12 -12 -12 -12 -12 -12 -12 -13 -13 -13 -13 -13 -13 -13 -13 -13 -12 -12 -12 -12 -11 -11 -11 -11 -11 -11 -11 -11 -11 -11 -11 -11 -11 -11 -11 -10 -10 -10 -11 -12 -12
-12 -12 -12 -12 -12 -12 -12 -12 -12 -12 -13 -13 -13 -13 -13 -12 -13 -13 -13 -12 -12 -12 -11 -12 -11 -11 -11 -11 -11 -11 -11 -11 -11 -11 -11 -11 -11 -11 -11 -11 -11 -11 -11
-13 -13 -13 -14 -14 -14 -14 -13 -12 -12 -13 -13 -13 -13 -13 -13 -13 -13 -13 -13 -13 -12 -12 -12 -12 -12 -12 -11 -11 -11 -11 -11 -11 -11 -11 -11 -12 -12 -11 -11 -11 -11 -11
-17 -18 -18 -18 -18 -18 -17 -16 -14 -12 -12 -12 -13 -13 -13 -13 -13 -13 -13 -13 -13 -13 -12 -12 -12 -12 -12 -12 -12 -11 -12 -12 -12 -12 -12 -12 -12 -12 -12 -12 -11 -11 -11
-18 -18 -18 -18 -18 -18 -17 -17 -16 -15 -13 -12 -12 -13 -13 -13 -13 -13 -13 -13 -13 -13 -13 -12 -12 -12 -12 -12 -12 -12 -12 -12 -12 -12 -12 -12 -12 -12 -12 -12 -12 -12 -12
-18 -18 -17 -17 -17 -17 -17 -17 -17 -17 -16 -13 -13 -13 -13 -14 -14 -13 -12 -13 -13 -13 -13 -13 -12 -12 -12 -12 -12 -12 -12 -12 -12 -12 -12 -12 -12 -12 -12 -12 -12 -12 -12
-18 -18 -17 -16 -16 -16 -16 -16 -16 -16 -17 -15 -13 -13 -13 -13 -14 -13 -12 -13 -13 -13 -13 -13 -13 -12 -12 -12 -12 -12 -12 -12 -12 -12 -12 -12 -12 -12 -12 -12 -12 -12 -12
-18 -17 -17 -17 -17 -17 -16 -16 -16 -16 -17 -17 -15 -14 -14 -13 -14 -14 -13 -12 -12 -13 -13 -13 -13 -13 -12 -12 -12 -12 -13 -13 -13 -12 -13 -13 -12 -12 -12 -12 -12 -12 -13
-17 -17 -17 -17 -17 -17 -17 -17 -17 -16 -16 -17 -17 -16 -14 -14 -13 -14 -13 -13 -12 -13 -13 -13 -13 -13 -13 -13 -13 -13 -13 -13 -13 -13 -13 -13 -13 -13 -12 -13 -13 -13 -13
-17 -17 -18 -18 -17 -16 -16 -16 -16 -16 -16 -17 -17 -17 -15 -14 -13 -14 -14 -13 -12 -13 -14 -14 -14 -14 -13 -13 -13 -13 -13 -13 -13 -13 -13 -13 -13 -13 -13 -13 -13 -13 -13
Height
5864 5865 5866 5865 5864 5862 5861 5860 5860 5859 5858 5857 5856 5855 5854 5853 5850 5849 5848 5847 5846 5844 5843 5840 5839 5838 5837 5836 5834 5833 5833 5832 5831 5828 5827 5825 5824 5824 5825 5825 5827 5825 5826
5862 5863 5862 5861 5860 5859 5858 5858 5858 5857 5856 5855 5854 5854 5853 5851 5849 5847 5846 5845 5844 5843 5841 5839 5838 5837 5835 5834 5833 5831 5830 5829 5828 5827 5826 5823 5823 5822 5822 5822 5823 5823 5824
5858 5858 5858 5858 5857 5856 5855 5855 5855 5855 5854 5853 5852 5851 5850 5849 5848 5846 5843 5842 5842 5841 5840 5838 5837 5836 5834 5832 5831 5829 5827 5826 5825 5825 5823 5821 5820 5818 5818 5819 5821 5821 5822
5853 5852 5852 5853 5853 5852 5852 5851 5851 5851 5851 5851 5850 5849 5847 5847 5846 5844 5842 5840 5839 5839 5838 5837 5835 5834 5833 5831 5829 5828 5825 5825 5825 5822 5821 5821 5819 5817 5811 5815 5817 5820 5820
5850 5848 5848 5848 5848 5848 5847 5847 5847 5847 5848 5848 5847 5846 5845 5844 5844 5842 5840 5838 5837 5836 5836 5835 5834 5832 5831 5830 5828 5826 5824 5824 5821 5821 5820 5819 5816 5817 5815 5812 5813 5817 5818
5843 5843 5843 5842 5842 5842 5841 5841 5841 5842 5843 5843 5843 5843 5842 5842 5841 5840 5838 5837 5835 5834 5833 5833 5832 5831 5830 5828 5826 5824 5823 5821 5820 5819 5818 5817 5815 5815 5802 5811 5812 5815 5817
5838 5836 5835 5834 5834 5835 5836 5837 5837 5837 5837 5838 5839 5839 5839 5838 5838 5837 5836 5835 5833 5832 5830 5830 5829 5828 5828 5827 5825 5823 5821 5819 5819 5817 5817 5816 5815 5814 5816 5814 5812 5813 5816
5831 5829 5828 5828 5827 5829 5829 5830 5831 5831 5832 5833 5833 5834 5834 5834 5834 5834 5832 5832 5831 5830 5828 5827 5826 5826 5825 5824 5823 5821 5820 5818 5817 5817 5817 5816 5815 5814 5815 5814 5810 5812 5814
5823 5820 5818 5819 5818 5820 5821 5823 5824 5825 5826 5827 5828 5829 5829 5830 5830 5829 5829 5828 5828 5827 5825 5824 5823 5822 5822 5821 5820 5819 5818 5816 5816 5815 5815 5814 5814 5813 5812 5813 5810 5810 5812
5814 5815 5813 5813 5814 5813 5814 5816 5817 5818 5819 5820 5822 5823 5824 5824 5824 5824 5825 5824 5824 5824 5823 5821 5819 5819 5818 5817 5817 5816 5816 5815 5815 5814 5813 5812 5813 5812 5810 5810 5810 5809 5810
5804 5805 5806 5805 5805 5805 5805 5807 5809 5811 5811 5812 5814 5816 5818 5818 5819 5820 5820 5819 5820 5819 5819 5818 5817 5815 5814 5814 5813 5813 5813 5813 5813 5812 5811 5810 5810 5810 5809 5809 5806 5806 5807
5796 5794 5797 5799 5798 5797 5797 5798 5800 5803 5804 5805 5806 5808 5811 5812 5812 5814 5814 5814 5814 5814 5814 5814 5813 5812 5811 5810 5809 5810 5810 5810 5809 5809 5809 5809 5809 5808 5807 5805 5804 5802 5801
5788 5788 5786 5786 5788 5790 5790 5789 5791 5793 5796 5797 5798 5799 5802 5805 5806 5807 5807 5808 5808 5808 5809 5809 5809 5809 5809 5807 5806 5806 5807 5807 5807 5806 5806 5807 5806 5806 5804 5804 5801 5798 5794
5776 5777 5777 5775 5776 5777 5780 5782 5782 5781 5783 5787 5789 5790 5793 5796 5799 5801 5802 5801 5802 5802 5804 5804 5805 5805 5804 5804 5803 5802 5803 5803 5803 5804 5803 5803 5803 5803 5802 5802 5800 5795 5794
5768 5767 5766 5765 5763 5764 5765 5769 5770 5772 5774 5776 5777 5780 5783 5786 5790 5792 5795 5796 5796 5796 5797 5798 5800 5801 5800 5800 5800 5800 5800 5800 5799 5800 5800 5800 5800 5798 5798 5798 5797 5797 5796
5756 5754 5754 5753 5752 5750 5752 5754 5757 5759 5761 5762 5767 5770 5772 5776 5780 5784 5788 5790 5791 5791 5790 5791 5793 5795 5796 5796 5795 5795 5797 5797 5795 5797 5796 5796 5797 5796 5796 5795 5795 5794 5794
5741 5738 5737 5737 5737 5737 5736 5737 5742 5744 5746 5751 5754 5758 5759 5763 5769 5774 5779 5781 5784 5785 5784 5785 5787 5789 5791 5791 5790 5791 5792 5793 5791 5792 5793 5793 5793 5793 5794 5794 5792 5791 5791
5725 5722 5720 5717 5716 5716 5719 5719 5721 5727 5730 5734 5740 5745 5748 5752 5757 5762 5769 5773 5776 5776 5778 5778 5780 5783 5785 5786 5787 5786 5786 5788 5789 5788 5789 5789 5789 5789 5790 5790 5790 5789 5788
5702 5700 5697 5695 5693 5691 5693 5698 5701 5706 5713 5717 5723 5729 5734 5740 5744 5749 5757 5763 5765 5768 5770 5772 5773 5775 5778 5780 5781 5781 5782 5782 5783 5784 5784 5785 5785 5784 5785 5786 5786 5786 5785
5685 5682 5679 5676 5675 5673 5671 5674 5679 5682 5691 5699 5704 5713 5722 5726 5730 5732 5742 5750 5755 5759 5761 5764 5766 5768 5771 5772 5775 5775 5776 5777 5778 5779 5780 5780 5780 5780 5780 5781 5781 5782 5782
5674 5671 5666 5661 5659 5658 5655 5656 5658 5660 5666 5677 5686 5694 5704 5711 5717 5718 5724 5735 5742 5750 5753 5755 5756 5760 5763 5765 5767 5769 5770 5771 5772 5773 5775 5775 5775 5775 5776 5776 5776 5777 5777
5663 5659 5652 5645 5642 5640 5638 5638 5641 5643 5646 5653 5665 5675 5685 5694 5703 5706 5709 5720 5729 5737 5742 5746 5749 5752 5755 5757 5760 5762 5764 5765 5766 5766 5769 5769 5769 5770 5770 5771 5771 5771 5772
5649 5640 5632 5626 5622 5619 5617 5618 5621 5626 5628 5632 5643 5656 5667 5677 5688 5693 5699 5703 5714 5721 5729 5736 5739 5743 5746 5748 5751 5754 5757 5759 5758 5761 5762 5764 5764 5765 5765 5764 5766 5766 5767
5635 5626 5618 5613 5608 5605 5602 5601 5602 5608 5614 5616 5622 5636 5649 5659 5670 5679 5687 5693 5701 5709 5716 5723 5728 5733 5736 5739 5742 5746 5748 5750 5752 5755 5756 5756 5757 5758 5760 5761 5760 5761 5760
5623 5617 5610 5603 5597 5594 5589 5585 5586 5590 5597 5603 5607 5614 5629 5640 5654 5665 5672 5678 5685 5693 5703 5709 5716 5722 5728 5730 5735 5736 5739 5741 5744 5748 5749 5751 5751 5751 5752 5754 5755 5754 5754
5612 5605 5600 5593 5584 5578 5574 5572 5572 5575 5579 5586 5592 5596 5608 5623 5637 5647 5654 5665 5661 5678 5688 5699 5705 5710 5717 5720 5723 5727 5731 5734 5737 5739 5741 5743 5745 5744 5744 5746 5747 5746 5746
Wind_Speed
28 25 21 23 25 25 26 26 21 20 20 20 19 18 18 16 13 13 14 12 12 12 11 11 11 12 13 13 12 13 14 15 15 16 16 19 17 16 16 17 13 12 13
26 26 21 19 23 25 26 26 24 22 23 22 22 19 19 16 14 11 12 13 11 11 11 12 11 12 12 12 12 12 12 13 15 15 16 17 17 17 14 16 13 10 4
25 25 22 22 21 25 27 27 26 24 24 24 23 22 21 18 15 13 12 12 12 10 11 12 12 13 12 12 13 13 13 13 13 12 14 15 16 15 14 15 11 7 12
27 28 27 23 23 26 29 29 26 26 25 25 24 23 21 20 17 14 13 12 12 11 10 10 12 12 13 13 14 14 14 13 9 11 12 16 18 14 13 15 12 8 6
29 31 29 26 26 27 30 31 30 27 26 26 26 25 21 20 17 15 15 13 12 11 11 10 11 12 12 13 13 13 14 10 8 10 12 18 18 17 18 16 13 11 9
32 33 31 32 29 30 31 31 30 29 28 26 26 26 22 20 18 15 15 15 13 11 11 11 11 11 13 13 13 12 11 10 9 11 8 10 11 15 12 17 11 14 12
35 35 34 35 34 32 32 32 33 31 29 28 26 26 25 22 18 16 15 15 14 13 13 11 11 11 11 13 14 13 11 10 9 9 7 11 12 8 18 20 12 9 12
30 35 37 35 38 34 33 33 33 34 32 31 29 27 26 23 21 18 16 16 16 15 14 13 12 12 11 12 13 14 12 11 9 9 7 9 11 5 10 18 13 12 9
25 33 37 37 39 38 35 34 34 35 35 35 32 28 26 24 22 19 18 16 16 18 16 15 15 13 12 12 12 13 12 12 9 8 10 10 9 7 8 11 14 9 11
33 31 35 36 37 39 38 37 36 35 36 36 35 31 27 26 24 20 19 18 16 19 19 18 16 15 13 12 12 13 12 11 11 9 9 8 9 10 9 10 15 15 15
40 38 36 37 38 40 42 40 39 38 38 37 36 34 29 28 25 23 20 18 17 18 19 20 19 18 16 14 13 12 11 11 8 10 9 9 11 11 11 11 7 9 16
41 47 45 42 42 40 43 44 43 42 40 39 38 36 32 30 27 25 21 20 18 20 20 21 21 21 19 17 14 13 12 11 9 9 10 10 11 12 11 9 11 14 17
40 41 44 44 48 43 45 45 45 45 44 43 41 39 36 33 30 27 25 24 21 21 21 21 21 21 21 20 17 15 14 12 10 9 9 10 10 12 13 11 12 17 15
46 44 42 45 47 50 43 47 49 48 47 47 45 44 42 36 32 29 28 27 25 22 23 23 23 22 22 22 20 17 16 14 13 11 10 11 11 9 13 12 11 6 8
44 45 46 48 50 50 51 49 50 53 52 49 48 47 46 40 36 32 30 30 28 25 24 25 24 23 24 22 21 20 17 17 17 13 12 11 11 11 12 13 10 3 5
47 48 47 48 50 54 55 54 53 54 57 54 50 50 49 46 40 36 32 31 29 27 27 27 26 24 24 24 23 22 20 19 19 17 15 13 13 12 11 12 11 9 7
52 53 55 56 55 57 58 59 59 57 57 62 55 53 54 52 45 42 36 34 32 30 30 29 28 25 24 25 25 23 23 21 20 19 17 16 15 14 12 10 11 10 11
60 61 63 66 67 65 64 66 65 63 62 61 63 56 58 56 53 48 41 36 35 34 32 31 29 28 27 26 26 26 24 23 22 22 19 18 17 16 14 11 10 11 12
67 69 70 68 68 67 69 70 73 70 68 66 65 64 62 58 57 54 47 41 38 38 34 33 31 30 29 28 27 27 25 25 24 24 21 20 18 17 16 14 13 12 13
50 49 52 54 51 51 52 56 69 78 74 72 70 68 66 63 61 61 54 46 42 39 36 35 32 32 30 31 29 28 27 26 25 25 24 22 20 18 17 16 15 15 15
47 50 54 54 57 59 59 57 51 68 80 77 75 71 70 69 66 64 58 53 47 41 38 38 37 35 33 32 32 29 29 27 25 25 27 25 23 21 21 18 17 17 16
54 56 56 59 59 58 62 59 55 47 67 83 79 77 73 73 70 68 64 57 51 45 43 40 40 37 36 35 32 32 30 29 28 29 27 28 26 24 24 23 20 19 19
56 60 63 57 52 53 52 61 57 54 46 73 83 82 77 74 73 71 59 60 55 50 47 43 42 40 38 37 35 34 31 29 33 30 29 28 28 27 27 26 24 24 22
57 54 43 37 37 35 41 44 50 54 45 45 72 83 82 78 77 75 66 65 56 53 50 47 45 43 43 39 38 35 34 34 32 32 31 30 29 29 29 28 27 26 26
47 37 38 38 35 40 41 45 43 50 52 50 47 67 86 84 79 78 71 66 63 58 54 51 49 46 44 43 39 39 37 37 34 31 32 33 29 30 30 30 27 28 27
43 38 37 35 42 36 40 35 37 44 49 55 52 51 82 88 82 81 79 68 79 65 58 52 50 49 47 46 44 42 40 38 37 33 34 32 30 29 30 29 30 30 30
Wind_Direction
279 290 288 273 271 271 273 276 282 287 295 290 286 287 294 301 306 318 315 309 302 299 302 300 292 290 287 284 277 282 288 291 292 288 286 289 289 274 277 277 285 283 274
276 285 286 273 269 271 272 278 281 282 289 289 289 293 298 302 299 308 308 305 299 296 305 307 305 301 299 287 280 280 285 291 292 292 290 292 294 289 269 265 268 266 211
283 284 274 266 266 269 271 273 277 277 282 285 289 294 298 297 294 299 302 297 292 284 297 305 298 299 298 287 287 285 284 290 299 309 292 294 295 292 256 261 268 249 239
271 272 269 264 261 266 270 272 272 274 279 284 287 293 296 294 293 296 294 291 288 287 287 292 291 290 285 288 288 286 285 292 312 300 299 314 305 275 250 247 234 232 211
262 265 270 268 265 262 264 269 270 271 276 279 283 289 295 292 291 290 291 287 278 277 278 288 292 293 290 290 292 296 295 328 320 311 315 322 306 293 276 214 213 214 222
270 271 267 269 262 263 262 264 267 268 271 273 279 282 287 287 288 286 284 285 277 268 264 277 281 296 291 294 297 302 305 324 341 326 335 343 318 286 206 216 232 229 237
283 276 273 269 265 261 261 262 262 263 266 269 270 275 277 281 282 281 279 282 272 265 261 267 270 282 291 296 296 304 310 320 335 331 336 341 322 243 237 234 220 217 223
269 269 267 265 266 262 261 259 259 262 263 264 265 268 272 274 275 273 271 277 271 263 260 257 258 265 278 291 297 306 313 313 328 329 313 319 347 326 267 256 233 221 238
261 256 257 258 261 261 258 257 257 258 260 261 263 264 266 267 270 268 265 269 276 265 257 254 253 256 266 278 292 304 309 311 315 324 311 331 329 337 317 283 279 262 233
277 260 265 266 263 263 261 256 255 254 257 260 261 261 259 259 262 261 260 261 273 272 264 256 250 250 253 265 280 292 301 303 310 322 325 324 317 314 323 287 270 265 254
277 271 263 268 268 263 259 256 255 254 254 255 258 258 256 255 258 256 254 254 259 268 265 261 254 252 247 252 265 278 286 290 303 315 313 312 305 301 296 291 290 280 260
279 274 262 262 265 263 260 257 255 255 255 256 255 257 254 250 252 254 246 247 249 262 263 260 261 259 252 248 252 264 273 279 286 310 312 309 297 305 313 303 294 289 269
281 277 278 274 260 265 264 260 257 256 256 254 253 253 252 249 250 249 241 240 239 252 261 258 257 259 260 255 251 254 261 267 275 286 300 302 307 302 299 309 316 302 235
279 275 270 269 268 261 263 265 262 256 249 253 254 253 252 249 248 247 245 240 238 243 255 259 256 256 256 258 259 256 258 263 267 269 281 297 304 317 300 304 318 340 170
278 275 273 269 265 260 259 257 261 261 256 251 250 251 249 247 247 243 246 247 241 237 246 254 255 254 255 256 259 260 258 263 265 262 270 284 301 313 316 305 313 268 230
280 277 273 271 268 265 260 254 251 254 257 250 246 247 247 247 245 245 243 249 249 238 238 246 250 250 255 259 258 256 261 261 265 267 264 271 283 295 304 305 293 293 275
276 273 272 271 266 262 262 258 251 247 247 254 247 242 246 243 245 245 239 242 246 241 234 240 246 250 252 257 260 259 256 260 266 267 264 266 270 276 284 293 287 279 278
282 277 275 272 268 261 255 255 253 246 242 243 249 243 241 244 246 245 240 235 242 242 235 237 240 245 249 253 257 260 259 259 262 265 264 265 269 270 272 278 283 276 273
281 276 274 272 269 263 255 245 249 247 241 239 241 243 238 240 241 245 239 235 233 239 237 235 238 242 246 250 253 257 257 258 258 265 266 267 267 268 268 266 268 280 280
285 282 282 278 273 265 263 259 242 242 240 237 236 237 239 239 238 238 237 234 230 234 236 232 237 242 243 247 251 253 258 259 262 265 268 269 270 272 273 271 267 269 276
284 283 284 280 276 272 271 273 263 244 237 234 233 233 233 233 236 239 230 232 227 229 233 233 232 236 240 245 247 249 255 259 262 264 268 269 270 272 276 275 271 266 270
290 291 290 282 274 270 270 265 262 263 244 232 228 229 230 231 231 236 230 227 229 226 229 232 232 234 237 241 246 247 250 257 260 259 260 264 267 269 272 275 277 275 269
301 302 298 292 285 278 270 261 258 254 253 240 228 225 227 229 228 234 235 222 224 223 226 229 231 231 235 240 243 245 247 252 255 261 261 262 264 265 267 271 275 278 279
305 303 300 294 290 284 282 277 255 249 251 246 238 223 222 226 226 230 234 230 223 220 223 226 230 230 231 237 242 247 249 251 253 257 260 260 262 267 268 268 273 275 278
304 293 296 297 288 285 283 272 262 242 243 239 241 236 219 221 225 225 230 232 225 220 220 224 228 230 232 233 239 244 247 249 250 254 255 258 262 265 271 271 270 274 274
310 300 293 300 297 295 299 274 267 254 245 235 235 236 225 218 221 223 226 229 228 221 220 224 226 231 231 233 234 241 246 250 252 252 256 258 262 265 269 273 276 275 278